Miscellaneous Hydrologic Data Report
Issued by NWS (Baltimore/Washington) Sterling, VA
1 of 50 available versions  First Miscellaneous Hydrologic Data Report Previous Miscellaneous Hydrologic Data Report  Print this page Close this Window


196
ASUS41 KLWX 262210
RWRLWX

REGIONAL WEATHER ROUNDUP
NATIONAL WEATHER SERVICE BALTIMORE MD/WASHINGTON DC
600 PM EDT SUN JUN 26 2016

Note: "FAIR" indicates few or no clouds below 12,000 feet
with no significant weather and/or obstructions to visibility.
 TC=TEMPERATURE CELSIUS

 * =Non NWS site. Station does not report precipitation (e.g. rain,
    snow, etc.), thunder, or fog.

DCZ001-MDZ009-015-VAZ040>042-051-053>054-262300-
WASHINGTON METRO

CITY           SKY/WX    TMP DP  RH WIND       PRES   REMARKS
WASHINGTON NAT PTSUNNY   83  49  30 S6        30.15F
DULLES         PTSUNNY   82  57  42 SE9       30.14F
ANDREWS AFB    SUNNY     80  53  39 SE6       30.15F
FT BELVOIR     FAIR      82  54  37 SE7       30.15F
QUANTICO       PTSUNNY   81  61  50 S10       30.16F
COLLEGE PARK*  FAIR      81  54  39 SE7       30.15F
LEESBURG*      FAIR      86  61  42 S8        30.15F
GAITHERSBURG*  SUNNY     81  54  39 SE9       30.19F

$$

MDZ006>007-011-014-262300-
BALTIMORE METRO

CITY           SKY/WX    TMP DP  RH WIND       PRES   REMARKS
BWI AIRPORT    PTSUNNY   82  54  37 SE8       30.15F
MD SCIENCE CTR   N/A     83  53  35 MISG      30.15F
ANNAPOLIS      SUNNY     81  59  47 S5        30.15F
FORT MEADE*    MOSUNNY   79  54  41 SE5       30.17F

$$

MDZ012-015-019>023-262300-
MARYLAND EASTERN SHORE

CITY           SKY/WX    TMP DP  RH WIND       PRES   REMARKS
OCEAN CITY     SUNNY     72  64  76 E8        30.18F
SALISBURY      SUNNY     77  59  53 SE8       30.16F
BAY BRIDGE AP* SUNNY     81  59  47 W6        30.16F
CAMBRIDGE*     SUNNY     81  50  34 SE3       30.16S
EASTON*        PTSUNNY   84  57  39 SE7       30.19F

$$

MDZ017>025-262300-
SOUTHERN MARYLAND

CITY           SKY/WX    TMP DP  RH WIND       PRES   REMARKS
PATUXENT RIVER CLOUDY    80  57  45 SE8       30.16F
ST INIGOES     SUNNY     79  63  57 SE8       30.16F
LEONARDTOWN*   SUNNY     79  55  44 SE5       30.18F

$$

MDZ003>005-262300-
NORTH CENTRAL MARYLAND

CITY           SKY/WX    TMP DP  RH WIND       PRES   REMARKS
FREDERICK*     SUNNY     84  59  42 S6        30.16F
HAGERSTOWN APT SUNNY     84  55  36 S12       30.13F
WESTMINSTER*   SUNNY     88  73  62 S9        30.17S HX  96

$$

MDZ501>502-262300-
WESTERN MARYLAND

CITY           SKY/WX    TMP DP  RH WIND       PRES   REMARKS
OAKLAND*       SUNNY     73  63  68 SE10      30.21F
CUMBERLAND*    SUNNY     86  64  48 SE6       30.15F

$$

VAZ025>031-262300-
SHENANDOAH VALLEY

CITY           SKY/WX    TMP DP  RH WIND       PRES   REMARKS
WINCHESTER*    FAIR      82  59  44 S9        30.15F
FRONT ROYAL*   FAIR      82  61  47 SE3       30.14F
LURAY*         FAIR      82  61  47 S3        30.14F
NEW MARKET*    FAIR     N/A N/A N/A S5        30.12F
STAUNTON*      FAIR      80  62  54 S6        30.19F
WAYNESBORO*    FAIR      80  61  52 S7        30.19F

$$

WVZ021-048>050-054>055-262300-
EASTERN WEST VIRGINIA PANHANDLE

CITY           SKY/WX    TMP DP  RH WIND       PRES   REMARKS
MARTINSBURG    FAIR      82  59  45 S9        30.13F
PETERSBURG*    CLOUDY    83  70  64 SE6       30.13F

$$

VAZ036>039-050-262300-
CENTRAL FOOTHILLS

CITY           SKY/WX    TMP DP  RH WIND       PRES   REMARKS
CHARLOTTESVILL FAIR      83  60  45 SE9       30.15F
CULPEPER*      FAIR      84  64  50 SE3       30.15F
ORANGE*        FAIR      82  55  39 CALM      30.17F
GORDONSVILLE*  FAIR      83  60  45 SE3       30.15F
WARRENTON*     FAIR      84  48  28 SE6       30.15F

$$

VAZ055>057-262300-
NORTH AND CENTRAL PIEDMONT

CITY           SKY/WX    TMP DP  RH WIND       PRES   REMARKS
FREDERICKSBRG* FAIR      83  55  37 SE6       30.14F
STAFFORD*      FAIR      81  56  41 SE6       30.19F

$$

NCZ024-NYZ072-PAZ021-071-VAZ022-071-262300-
OTHER REGIONAL OBSERVATIONS

CITY           SKY/WX    TMP DP  RH WIND       PRES   REMARKS
NEW YORK CITY  SUNNY     79  56  45 VRB3      30.17F
PHILADELPHIA   PTSUNNY   84  60  44 S13       30.15F
PITTSBURGH     MOSUNNY   90  59  35 S8        30.07F
ROANOKE        FAIR      81  67  62 SE9       30.18F
RICHMOND       PTSUNNY   81  59  47 SE8       30.16F
RALEIGH        MOSUNNY   84  60  44 NE8       30.15F

$$

ANZ530>537-262300-
MARINE OBSERVATIONS

STATION/POSITION TIME  TEMP    WIND        PRES
                       AIR SEA DIR/SP/G
                 (UTC) (F)     (DEG/KT/KT) (MB)
THOMAS PT LIGHT  2200   79 77  200/  4/  5 1022.4F
BALT KEY BRIDGE  2148                      1021.0F
COVE POINT       2148                      1022.0F
LEWISETTA        2148      81              1021.1F
SOLOMONS ISLAND  2148      79                N/A
PINEY POINT      2124          170/  8/ 10   N/A

$$



Close this window


The National Weather Service prepares its forecasts and other services in collaboration with agencies like the US Geological Survey, US Bureau of Reclamation, US Army Corps of Engineers, Natural Resource Conservation Service, National Park Service, ALERT Users Group, Bureau of Indian Affairs, and many state and local emergency managers across the country. For details, please click here.

National Weather Service
(Baltimore/Washington) Sterling Weather Forecast Office
43858 Weather Service Rd.
Sterling, VA 20166
(703) 996-2200
Page last modified: 26-Jun-2016 10:10 PM
Disclaimer
Credits
Glossary
Privacy Policy
About Us
Career Opportunities